Location: Oberwangen
(47.4286°N, 8.9679°E)
Time: 10:20:59
(UTC+00:00)

Cosmos 1816 Rocket - Pass Details

Date: 18 October 2021
Orbit: 952 x 998 km, 82.9° (Epoch: 08 December)

Event Time Altitude Azimuth Distance (km) Brightness Sun altitude
Rises 19:18:07 0° 355° (N) 3,643 7.8 -28.8°
Reaches altitude 10° 19:20:45 10° 2° (N) 2,696 7.0 -29.3°
Enters shadow 19:23:55 29° 21° (NNE) 1,691 5.7 -29.8°
